SCP
0 0 0 0 0 0 0 0 0 0 0 0 0 0 0 0 0 0 0 0 0 0 0 0 0 0 0 0 0 0 -0 0 0 0 0 -0 0 0 0 0 1 0 0 0 0 0 0 0 0 1 1 0 0 0
0 0 0 0 0 0 0 0 0 0 0 0 0 0 0 0 0 0 0 0 0 0 0 0 0 0 0 0 0 0 0 0 0 0 0 -0 -0 -0 -0 0 0 0 0 0 1 0 -0 -0 0 1 0 0 0 0
0 0 0 0 0 0 0 0 0 0 0 0 0 0 0 0 0 0 0 0 0 0 0 0 0 0 0 0 0 0 -0 -0 0 -0 0 -0 -0 -0 0 0 0 0 0 1 0 0 0 -0 -0 -0 0 -1 -0 -0
0 0 0 0 0 0 0 0 0 0 0 0 0 0 0 0 0 0 0 0 0 0 0 0 0 0 0 0 0 -0 0 -0 -0 -0 0 -0 -0 -0 -0 -0 0 0 0 0 1 -0 -0 -0 0 -0 -1 -1 -0 -0
0 0 0 0 0 0 0 0 0 0 0 0 0 0 0 0 0 0 0 0 0 0 0 0 0 0 0 0 -0 -0 -0 0 0 -0 -0 -0 -0 -0 -0 -0 -0 -0 0 0 0 0 0 1 0 -1 -1 -0 -0 -0
0 0 0 0 0 0 0 0 0 0 0 0 0 0 0 0 0 0 0 0 0 0 0 0 0 0 0 0 -0 -0 -0 -0 0 0 0 -0 0 -0 -0 -0 -0 0 0 0 0 0 1 0 0 -0 -0 -0 -0 -0
0 0 0 0 0 0 0 0 0 0 0 0 0 0 0 0 0 0 0 0 0 0 0 0 0 0 0 0 -0 0 0 0 0 0 0 0 -0 -0 -0 -0 0 0 0 0 0 0 1 0 0 0 0 -0 -0 -0
0 0 0 0 0 0 0 0 0 0 0 0 0 0 0 0 0 0 0 -0 0 0 0 0 0 0 0 -0 0 0 0 0 0 0 0 0 -0 -0 -0 0 -0 -0 -0 0 0 0 0 0 0 0 0 -0 -0 -0
0 0 0 0 0 0 0 0 0 0 0 0 0 0 0 0 0 0 0 0 0 0 0 0 0 0 0 0 -0 -0 0 0 0 0 0 0 -0 -0 -0 0 0 0 -0 0 0 0 0 0 0 0 0 0 -0 -0
0 0 0 0 0 0 0 0 0 0 0 0 0 0 0 0 -0 -0 0 0 0 0 0 0 0 0 0 0 -0 0 0 0 0 0 0 0 0 -0 0 0 0 0 -0 -0 0 0 0 0 0 0 0 0 -0 -0
0 0 0 0 0 0 0 0 0 0 0 0 0 0 0 0 0 0 0 0 0 0 0 0 0 0 0 0 -0 0 0 0 0 0 -0 -0 0 -0 0 0 0 0 -0 0 0 0 0 0 0 0 0 -0 -0 -0
0 0 0 0 0 0 0 0 0 0 0 0 0 0 0 0 0 0 0 0 0 0 0 0 0 0 0 0 -0 0 -0 0 0 -0 -0 -0 0 0 0 0 0 -0 0 0 0 0 0 0 0 0 -0 0 0 -0
0 0 0 0 0 0 0 0 0 0 0 0 0 0 0 0 0 0 0 0 0 0 0 -0 0 0 0 0 0 0 0 0 -0 -0 0 0 0 0 0 0 0 0 0 0 0 0 0 0 0 0 0 0 0 0
0 0 0 0 0 0 0 0 0 0 0 0 0 0 0 0 0 0 0 0 0 0 -0 -0 0 0 0 0 0 0 0 0 0 0 0 0 0 0 -0 0 0 0 0 0 0 0 0 0 0 0 0 0 0 0
0 0 0 0 0 0 0 0 0 0 0 0 0 0 0 0 0 0 0 0 0 0 -0 -0 -0 0 0 0 -0 0 0 0 0 0 0 0 0 -0 -0 -0 0 0 0 0 0 0 0 0 0 0 0 0 0 0
0 0 0 0 0 0 0 0 0 0 0 0 0 0 0 0 0 0 0 0 0 -0 -0 0 0 0 0 0 0 -0 0 0 0 0 0 -0 -0 0 0 0 0 0 0 0 0 0 0 0 0 0 0 0 0 0
0 0 0 0 0 0 0 0 0 0 0 0 0 0 0 0 0 0 0 0 -0 -0 -0 -0 0 0 0 0 0 0 0 -0 -0 -0 -0 0 0 0 0 0 0 0 0 0 0 0 0 0 0 0 0 0 0 0
0 0 0 0 0 0 0 0 0 0 0 0 0 0 0 0 0 0 0 -0 -0 -0 -0 0 0 0 0 0 0 0 0 -0 -0 -0 -0 -0 0 0 0 0 0 0 0 0 0 0 0 0 0 0 0 0 0 0
0 0 0 0 0 0 0 0 0 0 0 0 0 0 0 0 0 0 -0 -0 -0 -0 -0 0 0 0 0 0 0 0 0 0 0 -0 -0 0 0 0 0 0 0 0 0 0 0 0 0 0 0 0 0 0 0 0
0 0 0 0 0 0 0 0 0 0 0 0 0 0 0 0 0 -0 -0 -0 -0 -0 0 0 0 -0 0 -0 -0 -0 -0 0 0 0 0 0 0 0 0 0 0 0 0 0 0 0 0 0 0 0 0 0 0 0
0 0 0 0 0 0 0 0 0 0 0 0 0 0 0 0 0 0 0 0 0 0 0 0 0 0 0 0 -0 -0 0 0 0 -0 -0 0 0 0 0 0 -0 0 0 0 0 0 0 0 0 0 0 0 0 0
0 0 0 0 0 0 0 0 0 0 0 0 0 0 0 0 0 0 0 -0 0 0 0 0 0 0 0 -0 -0 0 0 0 0 0 0 0 0 0 0 0 0 0 0 0 0 0 0 0 0 0 0 0 0 0
0 0 0 0 0 0 0 0 0 0 0 0 0 0 0 -0 -0 -0 0 0 0 -0 0 0 0 0 0 0 0 0 0 0 0 0 0 0 0 0 0 0 0 0 0 0 0 0 0 0 0 0 0 0 0 0
0 0 0 0 0 0 0 0 0 0 0 0 0 0 0 0 0 0 0 0 0 0 0 -0 -0 0 0 0 0 0 0 0 0 0 0 0 0 0 0 0 0 0 0 0 0 0 0 0 0 0 0 0 0 0
0 0 0 0 0 0 0 0 0 0 0 0 0 0 0 0 0 0 0 0 0 0 0 0 0 0 0 0 0 0 0 0 0 0 0 0 0 0 0 0 0 0 0 0 0 0 0 0 0 0 0 0 0 0
0 0 0 0 0 0 0 0 0 0 0 0 0 0 0 0 0 0 0 0 0 0 0 0 0 0 0 0 0 0 0 0 0 0 0 0 0 0 0 0 0 0 0 0 0 0 0 0 0 0 0 0 0 0
-0 0 0 0 0 0 0 0 0 0 0 0 0 0 0 0 0 0 0 0 0 0 0 0 0 0 0 0 0 0 0 0 0 0 0 0 0 0 0 0 0 0 0 0 0 0 0 0 0 -0 0 0 0 0
0 -0 -0 -0 -0 0 0 0 0 0 0 0 0 0 0 -0 0 0 0 0 0 0 0 0 0 0 0 0 0 0 0 0 0 0 0 -0 0 0 0 0 0 0 0 0 0 0 0 0 0 0 0 0 0 0
-0 -0 0 -0 0 -0 -0 0 0 0 0 0 -0 -0 -0 0 0 -0 -0 -0 -0 -0 0 0 0 1 0 1 0 0 0 0 0 0 0 0 0 0 0 0 0 0 0 0 0 0 0 0 0 0 0 0 0 0
-0 -0 -0 0 0 -0 -0 -0 0 0 -0 -0 -0 -0 -0 -0 -0 -0 -0 -0 -0 0 0 0 0 0 0 0 0 0 0 0 0 0 0 0 0 0 0 0 0 0 0 0 0 -0 -0 -0 -0 -0 -0 -0 0 0
0 -0 -0 -0 0 -0 -0 -0 0 -0 -0 -0 -0 -0 -0 -0 -0 -0 -0 -0 -0 0 0 0 0 0 0 0 0 0 0 0 0 0 0 0 0 0 0 0 0 0 0 0 0 -0 -0 -0 -0 -0 0 0 0 0
0 0 0 -0 0 0 0 0 0 0 0 0 -0 -0 -0 -0 0 0 0 0 0 0 0 0 0 0 0 0 0 0 0 0 0 0 0 0 0 0 0 0 0 -0 -0 -0 0 0 0 0 0 0 0 0 0 0
0 0 0 0 0 0 0 0 0 0 0 0 0 0 0 0 0 0 0 0 0 0 0 -0 0 0 0 0 0 0 0 0 -0 -0 0 0 -0 0 -0 0 0 0 -0 0 0 0 0 0 0 0 0 0 0 0
Wind_Speed_500mb
28 30 31 28 25 25 24 25 25 26 27 28 26 23 18 16 20 30 30 27 28 18 55 66 62 47 30 27 11 21 28 9 18 9 6 4 7 10 15 15 8 10 8 4 4 6 7 12 17 6 3 54 76 61
29 32 28 25 23 23 24 24 24 25 26 26 24 17 17 16 15 23 30 27 29 32 44 53 73 79 73 75 59 30 23 27 15 7 9 4 11 4 14 10 26 4 9 5 6 9 30 32 36 11 32 81 68 79
27 26 25 25 23 23 24 24 24 25 25 26 21 17 15 19 20 26 27 29 28 28 57 31 35 41 30 33 31 29 26 28 17 24 18 7 8 6 1 7 18 29 42 2 10 10 15 61 60 42 52 82 84 92
26 25 26 25 24 24 25 26 25 26 25 27 20 14 13 15 18 28 32 31 32 20 13 30 34 49 42 50 45 57 60 54 55 52 18 6 4 5 3 5 10 16 27 18 7 17 25 35 25 64 75 87 86 82
28 28 30 29 27 24 24 24 25 24 25 27 18 17 15 17 15 19 27 37 41 30 11 37 72 9 12 24 47 51 54 55 46 17 10 11 7 4 5 5 9 10 4 6 8 20 9 35 69 81 85 83 83 84
29 28 29 30 28 25 24 24 24 23 23 24 18 16 17 18 17 15 12 6 30 40 15 8 33 45 18 27 30 42 49 46 40 12 11 8 12 17 8 10 18 31 37 27 34 56 36 69 69 73 78 76 77 82
30 27 30 28 28 25 25 24 23 21 19 18 16 15 16 21 24 30 13 1 18 8 12 13 13 10 14 10 10 14 26 24 24 13 12 12 15 18 6 7 29 48 32 53 43 49 48 73 72 73 74 72 72 72
28 25 29 27 26 25 24 23 23 20 18 16 18 19 18 20 29 47 37 37 10 16 14 7 10 7 17 8 5 5 9 15 14 12 8 9 7 12 10 15 40 61 49 56 43 37 88 81 76 73 77 77 77 73
28 28 30 27 25 23 22 22 21 19 17 15 14 17 15 20 21 34 17 14 32 28 11 9 7 7 16 8 9 10 13 7 16 7 7 11 7 11 16 1 23 44 42 35 37 40 84 84 79 81 77 71 75 73
27 30 29 26 27 24 21 21 19 18 16 12 15 5 10 16 19 26 12 10 21 23 23 19 35 21 24 14 12 8 14 7 6 11 17 8 8 36 28 12 24 37 65 52 64 60 73 74 80 75 74 69 71 69
29 27 28 28 27 22 20 19 18 17 12 14 12 12 11 18 10 8 9 13 16 11 20 23 49 27 31 9 9 8 6 6 6 4 6 6 7 5 3 15 20 43 32 31 53 72 82 91 85 76 69 70 70 67
33 29 28 25 25 21 20 19 17 16 13 14 12 16 9 10 11 9 7 9 11 9 12 22 30 37 16 18 17 16 7 4 10 9 4 6 7 19 8 19 35 38 32 58 62 67 71 72 72 75 72 71 67 63
27 25 25 25 23 21 20 19 19 21 25 22 8 8 11 12 8 10 12 9 7 10 11 32 19 10 12 20 5 6 7 9 8 7 6 4 27 28 30 29 27 20 29 54 65 68 69 65 63 65 69 67 65 63
34 30 29 28 25 21 18 17 16 14 7 9 7 9 9 10 12 12 16 10 12 17 27 34 32 13 14 7 4 6 7 5 7 8 2 7 18 20 25 33 42 53 50 64 68 67 65 62 59 60 64 66 65 63
27 27 29 29 24 22 18 16 15 16 12 11 9 9 14 26 26 13 24 19 20 17 23 25 23 17 5 3 4 6 6 6 8 7 5 11 24 41 28 32 17 41 52 55 63 64 61 62 64 66 66 65 62 59
29 29 31 29 31 26 19 17 20 21 10 11 14 9 24 26 23 22 23 16 17 24 12 8 9 5 6 5 9 12 6 4 3 5 16 3 24 62 7 62 56 42 48 64 67 61 64 66 69 68 64 59 57 54
29 23 16 9 18 23 23 24 16 17 15 14 16 31 32 31 28 28 16 10 17 10 3 6 11 8 6 6 7 7 5 3 4 16 14 14 11 7 15 22 36 32 47 66 72 69 70 68 67 66 61 56 53 48
27 17 21 19 26 26 21 29 12 15 18 23 17 23 31 32 28 32 16 5 16 15 9 9 14 6 5 7 4 8 19 5 2 16 37 39 24 15 12 10 23 40 44 68 76 77 75 73 69 65 58 53 47 43
22 25 21 23 30 17 13 17 20 10 19 25 36 37 35 36 36 35 30 23 22 7 17 22 8 5 2 9 8 15 15 21 23 32 26 27 21 12 14 15 24 27 71 73 77 77 76 72 67 63 57 52 51 49
26 31 27 40 41 10 8 12 20 14 12 16 36 39 42 41 43 43 32 32 36 13 9 7 3 4 13 33 9 9 12 13 17 48 24 22 17 14 8 7 28 7 54 76 72 73 68 60 56 56 57 55 50 46
23 27 24 43 29 25 9 10 14 14 14 21 29 33 24 26 33 36 43 45 41 29 13 29 35 21 25 12 8 10 21 7 19 11 18 23 21 16 7 17 35 39 29 55 65 67 65 61 60 59 55 50 41 33
17 23 28 33 13 13 14 15 13 9 10 22 31 27 22 19 27 29 28 32 34 33 40 43 41 33 20 14 19 26 26 40 35 25 23 13 13 13 12 18 32 50 56 56 62 66 65 62 65 58 45 46 38 33
18 26 11 17 14 12 16 17 10 10 6 10 19 22 14 26 35 37 24 33 43 44 39 41 44 38 37 32 28 26 31 30 29 32 24 22 19 15 12 25 16 29 44 44 50 61 56 60 62 55 49 51 46 39
22 14 12 15 23 10 12 11 8 10 14 17 10 15 19 20 35 30 17 34 41 47 50 48 43 40 37 36 38 31 28 21 29 29 21 23 22 15 16 19 29 32 40 38 36 51 59 69 66 61 51 52 44 42
11 11 9 11 13 12 10 17 18 12 15 20 29 24 15 16 13 20 21 26 42 44 44 44 47 46 46 45 35 34 31 30 29 31 29 23 19 13 12 11 12 24 31 39 29 28 24 50 51 47 48 49 44 43
7 13 13 15 10 11 13 15 19 30 20 25 13 17 30 17 27 21 14 37 40 37 46 45 50 47 50 51 47 38 29 33 17 7 12 34 24 17 17 31 27 32 31 26 36 59 46 43 39 32 39 40 37 38
9 13 20 21 23 17 10 22 30 10 12 9 12 22 16 11 17 22 45 49 44 45 39 41 44 50 48 50 46 43 35 30 35 17 25 26 30 23 15 34 46 41 34 36 45 48 49 44 39 43 38 30 30 36
20 13 18 32 31 26 23 17 9 12 12 18 14 17 9 9 19 47 41 25 26 39 48 43 40 44 42 41 32 33 29 28 22 20 12 11 29 29 15 21 25 34 34 35 35 31 41 49 49 49 45 40 39 39
14 17 18 25 25 14 18 15 18 25 25 32 20 22 30 49 35 25 28 33 46 39 36 37 29 29 24 24 29 20 13 19 20 26 23 28 32 34 27 24 25 20 21 29 33 32 35 38 42 33 34 35 36 32
18 30 18 16 12 16 27 33 28 35 41 51 54 55 54 49 45 34 36 41 39 39 33 38 26 32 36 29 24 24 16 16 15 15 20 18 16 29 25 24 17 23 32 31 36 43 46 45 43 33 31 31 29 24
14 26 14 18 12 31 47 42 40 44 50 52 47 40 41 38 41 36 37 47 43 24 23 31 36 31 35 31 25 27 29 24 24 28 27 18 14 29 21 21 16 28 41 45 41 33 31 36 38 34 36 33 31 33
21 22 14 8 9 23 25 18 27 17 25 33 27 32 27 18 20 22 12 18 23 30 41 35 17 24 26 24 22 22 23 21 18 24 41 18 36 28 22 26 24 23 36 33 31 29 30 36 42 43 41 39 40 38
19 25 24 9 7 6 11 11 3 4 4 3 11 28 25 18 14 7 6 12 28 33 40 45 39 34 31 28 25 26 27 32 30 32 47 25 22 29 23 29 36 29 35 24 23 20 27 36 39 37 41 39 38 27
Wind_Direction_500mb
274 280 284 277 279 281 286 292 298 301 307 317 319 322 311 293 221 218 230 250 256 259 272 271 276 271 272 275 264 292 324 340 282 237 235 111 287 291 319 326 285 174 135 143 83 57 277 280 16 84 349 145 159 153
277 281 274 270 276 280 285 290 295 298 302 311 310 309 304 281 243 226 247 259 276 258 261 276 282 273 255 256 263 262 258 321 291 333 351 20 250 319 348 296 333 300 154 154 85 213 158 132 126 340 305 143 145 142
269 273 266 268 275 279 283 290 294 296 298 305 302 294 291 277 259 246 255 257 277 280 293 281 298 309 268 266 254 239 254 235 242 333 302 281 283 173 111 306 328 342 13 64 83 304 170 163 165 204 162 136 141 145
262 269 266 268 275 279 283 288 291 294 296 302 293 287 281 284 265 256 244 241 267 274 271 285 312 283 270 271 258 241 254 257 274 295 286 256 283 350 252 281 275 268 313 317 72 179 189 233 225 144 127 134 135 139
259 267 269 264 269 275 282 285 288 292 293 299 290 290 262 276 272 266 260 243 249 254 288 297 311 288 307 274 250 235 245 248 247 260 235 273 112 197 253 329 256 187 61 328 208 193 146 152 137 138 132 135 142 143
258 262 269 266 266 269 278 281 285 288 289 295 292 294 257 255 254 286 304 297 250 245 261 280 288 299 274 267 234 229 242 244 231 229 256 234 217 187 210 216 215 234 283 277 253 309 166 141 136 137 135 138 142 145
259 257 262 261 263 269 270 274 278 280 281 288 287 286 250 241 239 228 236 348 129 230 274 287 276 256 322 275 257 230 221 215 212 226 236 236 211 189 252 238 249 267 280 309 271 271 133 141 139 139 138 139 145 147
257 253 258 259 260 264 267 272 274 274 275 268 274 278 250 242 252 255 261 244 240 291 254 265 266 250 337 291 297 227 193 218 233 232 236 221 198 219 249 280 309 287 310 293 259 227 154 145 141 143 144 143 141 139
253 253 255 254 253 258 267 272 273 269 270 250 261 269 247 236 250 269 328 211 244 235 273 256 278 304 351 298 289 273 215 226 224 218 218 158 218 224 217 190 301 236 274 255 225 197 141 139 140 145 146 143 138 144
252 250 249 248 253 257 266 268 269 260 262 246 211 218 234 230 258 275 184 197 210 216 225 251 255 266 268 15 311 271 197 239 224 213 145 220 250 251 245 288 245 215 200 279 231 152 140 138 145 149 150 149 145 149
246 246 250 248 250 252 252 258 261 247 231 209 206 224 247 282 190 228 237 213 215 229 214 237 224 233 222 154 213 254 294 291 257 154 221 224 255 186 290 230 218 240 251 284 182 154 150 151 152 151 153 153 154 154
236 243 243 243 244 243 247 253 250 228 203 202 252 270 255 216 222 226 217 230 217 247 243 222 228 213 210 165 179 201 226 250 257 151 255 238 222 169 216 140 183 196 263 167 154 152 153 154 155 156 154 153 155 161
236 234 230 234 236 233 236 240 244 237 235 266 232 265 203 190 222 213 209 215 226 247 321 355 337 280 169 194 181 193 231 241 199 215 237 261 128 138 138 150 151 164 252 160 155 156 154 155 159 154 153 155 159 160
240 230 226 229 232 231 235 242 241 231 213 230 222 237 230 192 223 198 242 291 307 304 334 343 307 278 24 71 339 248 235 263 271 268 337 8 67 109 121 157 163 202 247 158 153 154 156 156 152 154 156 159 159 166
215 216 226 228 224 221 229 247 230 208 217 222 241 239 226 246 272 272 267 284 294 318 339 308 300 257 112 154 188 297 257 242 256 353 52 8 38 315 261 184 242 152 154 153 158 156 156 154 155 151 155 159 159 160
221 227 236 237 224 216 215 231 210 211 231 226 228 266 260 278 280 300 305 336 356 355 341 8 274 312 169 214 204 210 247 215 20 303 307 109 202 248 152 160 163 178 180 168 160 158 154 153 151 150 153 159 163 168
210 209 236 199 189 192 201 220 207 205 223 221 219 230 252 275 270 285 310 357 360 14 5 247 251 222 288 224 226 243 50 53 223 308 271 330 300 297 326 175 180 184 172 165 158 157 151 155 155 153 152 157 164 169
204 207 230 200 186 194 207 223 245 221 235 237 225 243 241 245 260 269 268 281 11 313 283 253 294 255 237 281 16 22 36 113 134 282 300 322 339 319 315 216 174 193 175 161 158 154 157 160 160 157 158 163 164 166
202 215 218 182 177 190 207 212 231 273 249 252 223 236 249 264 270 264 249 254 257 322 286 307 250 195 215 357 359 26 9 14 1 348 326 331 336 331 293 248 190 167 159 154 154 157 161 162 161 158 162 166 166 170
211 222 226 184 188 228 228 234 205 237 263 255 237 244 244 244 255 258 256 240 238 222 221 259 217 100 236 190 94 157 81 33 21 17 321 339 349 325 313 239 195 205 158 159 154 158 154 153 162 166 172 172 171 175
223 222 227 187 207 227 263 273 231 251 262 256 273 287 284 266 253 247 237 242 237 226 227 246 283 298 267 308 17 321 317 287 350 12 58 328 328 307 234 190 137 153 155 147 154 162 163 166 169 171 176 176 182 189
211 182 174 185 206 217 256 243 233 271 278 261 269 268 261 262 272 259 257 262 259 242 235 256 272 284 282 301 302 334 327 315 284 277 287 279 292 302 249 193 184 175 179 170 176 175 173 174 175 178 179 173 176 176
184 179 176 186 217 226 255 240 239 229 252 278 250 222 243 256 251 263 261 244 256 260 259 253 265 273 285 287 290 297 304 286 266 274 258 245 256 255 237 203 207 205 184 181 184 184 180 184 180 182 178 172 176 180
161 194 206 204 204 237 236 214 234 238 261 248 255 268 265 234 236 239 246 250 254 247 251 260 264 271 275 277 272 260 260 260 262 270 235 245 277 280 217 191 207 208 200 193 189 185 186 181 174 177 177 176 179 183
189 220 212 241 222 227 228 225 219 221 234 256 257 259 261 276 239 234 241 247 240 240 246 248 245 248 251 262 271 258 265 256 267 256 236 245 267 281 219 227 231 199 189 187 208 228 175 172 179 175 177 178 183 193
206 221 196 204 231 206 202 229 216 217 234 241 258 252 251 261 263 253 250 238 246 246 232 240 229 235 235 245 251 259 262 241 246 340 226 230 248 261 232 196 179 163 176 198 161 171 167 155 156 167 181 184 186 197
231 233 225 225 233 230 237 251 270 273 243 235 243 231 253 260 256 243 251 265 274 273 270 245 235 231 232 236 244 242 249 245 244 253 261 256 249 268 267 205 183 163 162 174 183 192 189 188 181 177 184 179 195 196
226 241 234 232 232 240 253 253 253 243 233 236 246 250 228 217 240 260 271 244 256 278 261 254 241 228 237 233 235 225 245 246 218 224 194 299 205 219 211 188 182 188 192 199 202 207 204 207 198 196 187 176 177 196
227 219 235 247 245 243 224 218 226 227 241 267 258 240 244 260 272 281 285 279 280 282 267 237 213 192 206 193 186 188 187 203 217 211 204 185 190 191 183 173 179 193 199 187 186 190 181 170 171 183 187 198 209 218
234 215 216 205 207 222 218 213 232 238 249 252 263 280 286 286 289 294 280 280 284 324 223 195 184 186 187 181 186 190 196 224 201 211 220 188 205 187 183 178 164 173 173 179 177 169 167 163 168 180 183 197 208 203
227 185 202 220 242 241 232 232 245 253 256 259 268 275 276 286 296 284 282 281 267 252 169 178 215 220 208 201 209 194 192 210 209 212 219 218 160 178 173 179 175 165 161 163 169 175 186 190 193 201 198 202 211 218
209 190 199 232 249 249 247 250 219 225 223 224 235 245 246 244 313 284 290 246 234 212 224 219 172 167 156 162 164 184 192 209 235 254 222 215 214 185 175 167 160 169 180 189 197 198 196 197 200 200 203 205 223 202
207 205 211 235 220 213 164 146 129 182 272 158 211 212 224 194 240 271 121 146 152 141 155 172 173 151 157 166 162 156 145 133 114 94 172 202 183 171 172 192 182 180 188 193 203 209 206 207 215 217 215 220 228 236
Wind_Speed_850mb
28 30 31 28 25 25 24 25 25 26 27 28 26 23 18 16 20 30 30 27 28 18 55 66 62 47 30 27 11 21 28 9 18 9 6 4 7 10 15 15 8 10 8 4 4 6 7 12 17 6 3 54 76 61
29 32 28 25 23 23 24 24 24 25 26 26 24 17 17 16 15 23 30 27 29 32 44 53 73 79 73 75 59 30 23 27 15 7 9 4 11 4 14 10 26 4 9 5 6 9 30 32 36 11 32 81 68 79
27 26 25 25 23 23 24 24 24 25 25 26 21 17 15 19 20 26 27 29 28 28 57 31 35 41 30 33 31 29 26 28 17 24 18 7 8 6 1 7 18 29 42 2 10 10 15 61 60 42 52 82 84 92
26 25 26 25 24 24 25 26 25 26 25 27 20 14 13 15 18 28 32 31 32 20 13 30 34 49 42 50 45 57 60 54 55 52 18 6 4 5 3 5 10 16 27 18 7 17 25 35 25 64 75 87 86 82
28 28 30 29 27 24 24 24 25 24 25 27 18 17 15 17 15 19 27 37 41 30 11 37 72 9 12 24 47 51 54 55 46 17 10 11 7 4 5 5 9 10 4 6 8 20 9 35 69 81 85 83 83 84
29 28 29 30 28 25 24 24 24 23 23 24 18 16 17 18 17 15 12 6 30 40 15 8 33 45 18 27 30 42 49 46 40 12 11 8 12 17 8 10 18 31 37 27 34 56 36 69 69 73 78 76 77 82
30 27 30 28 28 25 25 24 23 21 19 18 16 15 16 21 24 30 13 1 18 8 12 13 13 10 14 10 10 14 26 24 24 13 12 12 15 18 6 7 29 48 32 53 43 49 48 73 72 73 74 72 72 72
28 25 29 27 26 25 24 23 23 20 18 16 18 19 18 20 29 47 37 37 10 16 14 7 10 7 17 8 5 5 9 15 14 12 8 9 7 12 10 15 40 61 49 56 43 37 88 81 76 73 77 77 77 73
28 28 30 27 25 23 22 22 21 19 17 15 14 17 15 20 21 34 17 14 32 28 11 9 7 7 16 8 9 10 13 7 16 7 7 11 7 11 16 1 23 44 42 35 37 40 84 84 79 81 77 71 75 73
27 30 29 26 27 24 21 21 19 18 16 12 15 5 10 16 19 26 12 10 21 23 23 19 35 21 24 14 12 8 14 7 6 11 17 8 8 36 28 12 24 37 65 52 64 60 73 74 80 75 74 69 71 69
29 27 28 28 27 22 20 19 18 17 12 14 12 12 11 18 10 8 9 13 16 11 20 23 49 27 31 9 9 8 6 6 6 4 6 6 7 5 3 15 20 43 32 31 53 72 82 91 85 76 69 70 70 67
33 29 28 25 25 21 20 19 17 16 13 14 12 16 9 10 11 9 7 9 11 9 12 22 30 37 16 18 17 16 7 4 10 9 4 6 7 19 8 19 35 38 32 58 62 67 71 72 72 75 72 71 67 63
27 25 25 25 23 21 20 19 19 21 25 22 8 8 11 12 8 10 12 9 7 10 11 32 19 10 12 20 5 6 7 9 8 7 6 4 27 28 30 29 27 20 29 54 65 68 69 65 63 65 69 67 65 63
34 30 29 28 25 21 18 17 16 14 7 9 7 9 9 10 12 12 16 10 12 17 27 34 32 13 14 7 4 6 7 5 7 8 2 7 18 20 25 33 42 53 50 64 68 67 65 62 59 60 64 66 65 63
27 27 29 29 24 22 18 16 15 16 12 11 9 9 14 26 26 13 24 19 20 17 23 25 23 17 5 3 4 6 6 6 8 7 5 11 24 41 28 32 17 41 52 55 63 64 61 62 64 66 66 65 62 59
29 29 31 29 31 26 19 17 20 21 10 11 14 9 24 26 23 22 23 16 17 24 12 8 9 5 6 5 9 12 6 4 3 5 16 3 24 62 7 62 56 42 48 64 67 61 64 66 69 68 64 59 57 54
29 23 16 9 18 23 23 24 16 17 15 14 16 31 32 31 28 28 16 10 17 10 3 6 11 8 6 6 7 7 5 3 4 16 14 14 11 7 15 22 36 32 47 66 72 69 70 68 67 66 61 56 53 48
27 17 21 19 26 26 21 29 12 15 18 23 17 23 31 32 28 32 16 5 16 15 9 9 14 6 5 7 4 8 19 5 2 16 37 39 24 15 12 10 23 40 44 68 76 77 75 73 69 65 58 53 47 43
22 25 21 23 30 17 13 17 20 10 19 25 36 37 35 36 36 35 30 23 22 7 17 22 8 5 2 9 8 15 15 21 23 32 26 27 21 12 14 15 24 27 71 73 77 77 76 72 67 63 57 52 51 49
26 31 27 40 41 10 8 12 20 14 12 16 36 39 42 41 43 43 32 32 36 13 9 7 3 4 13 33 9 9 12 13 17 48 24 22 17 14 8 7 28 7 54 76 72 73 68 60 56 56 57 55 50 46
23 27 24 43 29 25 9 10 14 14 14 21 29 33 24 26 33 36 43 45 41 29 13 29 35 21 25 12 8 10 21 7 19 11 18 23 21 16 7 17 35 39 29 55 65 67 65 61 60 59 55 50 41 33
17 23 28 33 13 13 14 15 13 9 10 22 31 27 22 19 27 29 28 32 34 33 40 43 41 33 20 14 19 26 26 40 35 25 23 13 13 13 12 18 32 50 56 56 62 66 65 62 65 58 45 46 38 33
18 26 11 17 14 12 16 17 10 10 6 10 19 22 14 26 35 37 24 33 43 44 39 41 44 38 37 32 28 26 31 30 29 32 24 22 19 15 12 25 16 29 44 44 50 61 56 60 62 55 49 51 46 39
22 14 12 15 23 10 12 11 8 10 14 17 10 15 19 20 35 30 17 34 41 47 50 48 43 40 37 36 38 31 28 21 29 29 21 23 22 15 16 19 29 32 40 38 36 51 59 69 66 61 51 52 44 42
11 11 9 11 13 12 10 17 18 12 15 20 29 24 15 16 13 20 21 26 42 44 44 44 47 46 46 45 35 34 31 30 29 31 29 23 19 13 12 11 12 24 31 39 29 28 24 50 51 47 48 49 44 43
7 13 13 15 10 11 13 15 19 30 20 25 13 17 30 17 27 21 14 37 40 37 46 45 50 47 50 51 47 38 29 33 17 7 12 34 24 17 17 31 27 32 31 26 36 59 46 43 39 32 39 40 37 38
9 13 20 21 23 17 10 22 30 10 12 9 12 22 16 11 17 22 45 49 44 45 39 41 44 50 48 50 46 43 35 30 35 17 25 26 30 23 15 34 46 41 34 36 45 48 49 44 39 43 38 30 30 36
20 13 18 32 31 26 23 17 9 12 12 18 14 17 9 9 19 47 41 25 26 39 48 43 40 44 42 41 32 33 29 28 22 20 12 11 29 29 15 21 25 34 34 35 35 31 41 49 49 49 45 40 39 39
14 17 18 25 25 14 18 15 18 25 25 32 20 22 30 49 35 25 28 33 46 39 36 37 29 29 24 24 29 20 13 19 20 26 23 28 32 34 27 24 25 20 21 29 33 32 35 38 42 33 34 35 36 32
18 30 18 16 12 16 27 33 28 35 41 51 54 55 54 49 45 34 36 41 39 39 33 38 26 32 36 29 24 24 16 16 15 15 20 18 16 29 25 24 17 23 32 31 36 43 46 45 43 33 31 31 29 24
14 26 14 18 12 31 47 42 40 44 50 52 47 40 41 38 41 36 37 47 43 24 23 31 36 31 35 31 25 27 29 24 24 28 27 18 14 29 21 21 16 28 41 45 41 33 31 36 38 34 36 33 31 33
21 22 14 8 9 23 25 18 27 17 25 33 27 32 27 18 20 22 12 18 23 30 41 35 17 24 26 24 22 22 23 21 18 24 41 18 36 28 22 26 24 23 36 33 31 29 30 36 42 43 41 39 40 38
19 25 24 9 7 6 11 11 3 4 4 3 11 28 25 18 14 7 6 12 28 33 40 45 39 34 31 28 25 26 27 32 30 32 47 25 22 29 23 29 36 29 35 24 23 20 27 36 39 37 41 39 38 27
Wind_Direction_850mb
274 280 284 277 279 281 286 292 298 301 307 317 319 322 311 293 221 218 230 250 256 259 272 271 276 271 272 275 264 292 324 340 282 237 235 111 287 291 319 326 285 174 135 143 83 57 277 280 16 84 349 145 159 153
277 281 274 270 276 280 285 290 295 298 302 311 310 309 304 281 243 226 247 259 276 258 261 276 282 273 255 256 263 262 258 321 291 333 351 20 250 319 348 296 333 300 154 154 85 213 158 132 126 340 305 143 145 142
269 273 266 268 275 279 283 290 294 296 298 305 302 294 291 277 259 246 255 257 277 280 293 281 298 309 268 266 254 239 254 235 242 333 302 281 283 173 111 306 328 342 13 64 83 304 170 163 165 204 162 136 141 145
262 269 266 268 275 279 283 288 291 294 296 302 293 287 281 284 265 256 244 241 267 274 271 285 312 283 270 271 258 241 254 257 274 295 286 256 283 350 252 281 275 268 313 317 72 179 189 233 225 144 127 134 135 139
259 267 269 264 269 275 282 285 288 292 293 299 290 290 262 276 272 266 260 243 249 254 288 297 311 288 307 274 250 235 245 248 247 260 235 273 112 197 253 329 256 187 61 328 208 193 146 152 137 138 132 135 142 143
258 262 269 266 266 269 278 281 285 288 289 295 292 294 257 255 254 286 304 297 250 245 261 280 288 299 274 267 234 229 242 244 231 229 256 234 217 187 210 216 215 234 283 277 253 309 166 141 136 137 135 138 142 145
259 257 262 261 263 269 270 274 278 280 281 288 287 286 250 241 239 228 236 348 129 230 274 287 276 256 322 275 257 230 221 215 212 226 236 236 211 189 252 238 249 267 280 309 271 271 133 141 139 139 138 139 145 147
257 253 258 259 260 264 267 272 274 274 275 268 274 278 250 242 252 255 261 244 240 291 254 265 266 250 337 291 297 227 193 218 233 232 236 221 198 219 249 280 309 287 310 293 259 227 154 145 141 143 144 143 141 139
253 253 255 254 253 258 267 272 273 269 270 250 261 269 247 236 250 269 328 211 244 235 273 256 278 304 351 298 289 273 215 226 224 218 218 158 218 224 217 190 301 236 274 255 225 197 141 139 140 145 146 143 138 144
252 250 249 248 253 257 266 268 269 260 262 246 211 218 234 230 258 275 184 197 210 216 225 251 255 266 268 15 311 271 197 239 224 213 145 220 250 251 245 288 245 215 200 279 231 152 140 138 145 149 150 149 145 149
246 246 250 248 250 252 252 258 261 247 231 209 206 224 247 282 190 228 237 213 215 229 214 237 224 233 222 154 213 254 294 291 257 154 221 224 255 186 290 230 218 240 251 284 182 154 150 151 152 151 153 153 154 154
236 243 243 243 244 243 247 253 250 228 203 202 252 270 255 216 222 226 217 230 217 247 243 222 228 213 210 165 179 201 226 250 257 151 255 238 222 169 216 140 183 196 263 167 154 152 153 154 155 156 154 153 155 161
236 234 230 234 236 233 236 240 244 237 235 266 232 265 203 190 222 213 209 215 226 247 321 355 337 280 169 194 181 193 231 241 199 215 237 261 128 138 138 150 151 164 252 160 155 156 154 155 159 154 153 155 159 160
240 230 226 229 232 231 235 242 241 231 213 230 222 237 230 192 223 198 242 291 307 304 334 343 307 278 24 71 339 248 235 263 271 268 337 8 67 109 121 157 163 202 247 158 153 154 156 156 152 154 156 159 159 166
215 216 226 228 224 221 229 247 230 208 217 222 241 239 226 246 272 272 267 284 294 318 339 308 300 257 112 154 188 297 257 242 256 353 52 8 38 315 261 184 242 152 154 153 158 156 156 154 155 151 155 159 159 160
221 227 236 237 224 216 215 231 210 211 231 226 228 266 260 278 280 300 305 336 356 355 341 8 274 312 169 214 204 210 247 215 20 303 307 109 202 248 152 160 163 178 180 168 160 158 154 153 151 150 153 159 163 168
210 209 236 199 189 192 201 220 207 205 223 221 219 230 252 275 270 285 310 357 360 14 5 247 251 222 288 224 226 243 50 53 223 308 271 330 300 297 326 175 180 184 172 165 158 157 151 155 155 153 152 157 164 169
204 207 230 200 186 194 207 223 245 221 235 237 225 243 241 245 260 269 268 281 11 313 283 253 294 255 237 281 16 22 36 113 134 282 300 322 339 319 315 216 174 193 175 161 158 154 157 160 160 157 158 163 164 166
202 215 218 182 177 190 207 212 231 273 249 252 223 236 249 264 270 264 249 254 257 322 286 307 250 195 215 357 359 26 9 14 1 348 326 331 336 331 293 248 190 167 159 154 154 157 161 162 161 158 162 166 166 170
211 222 226 184 188 228 228 234 205 237 263 255 237 244 244 244 255 258 256 240 238 222 221 259 217 100 236 190 94 157 81 33 21 17 321 339 349 325 313 239 195 205 158 159 154 158 154 153 162 166 172 172 171 175
223 222 227 187 207 227 263 273 231 251 262 256 273 287 284 266 253 247 237 242 237 226 227 246 283 298 267 308 17 321 317 287 350 12 58 328 328 307 234 190 137 153 155 147 154 162 163 166 169 171 176 176 182 189
211 182 174 185 206 217 256 243 233 271 278 261 269 268 261 262 272 259 257 262 259 242 235 256 272 284 282 301 302 334 327 315 284 277 287 279 292 302 249 193 184 175 179 170 176 175 173 174 175 178 179 173 176 176
184 179 176 186 217 226 255 240 239 229 252 278 250 222 243 256 251 263 261 244 256 260 259 253 265 273 285 287 290 297 304 286 266 274 258 245 256 255 237 203 207 205 184 181 184 184 180 184 180 182 178 172 176 180
161 194 206 204 204 237 236 214 234 238 261 248 255 268 265 234 236 239 246 250 254 247 251 260 264 271 275 277 272 260 260 260 262 270 235 245 277 280 217 191 207 208 200 193 189 185 186 181 174 177 177 176 179 183
189 220 212 241 222 227 228 225 219 221 234 256 257 259 261 276 239 234 241 247 240 240 246 248 245 248 251 262 271 258 265 256 267 256 236 245 267 281 219 227 231 199 189 187 208 228 175 172 179 175 177 178 183 193
206 221 196 204 231 206 202 229 216 217 234 241 258 252 251 261 263 253 250 238 246 246 232 240 229 235 235 245 251 259 262 241 246 340 226 230 248 261 232 196 179 163 176 198 161 171 167 155 156 167 181 184 186 197
231 233 225 225 233 230 237 251 270 273 243 235 243 231 253 260 256 243 251 265 274 273 270 245 235 231 232 236 244 242 249 245 244 253 261 256 249 268 267 205 183 163 162 174 183 192 189 188 181 177 184 179 195 196
226 241 234 232 232 240 253 253 253 243 233 236 246 250 228 217 240 260 271 244 256 278 261 254 241 228 237 233 235 225 245 246 218 224 194 299 205 219 211 188 182 188 192 199 202 207 204 207 198 196 187 176 177 196
227 219 235 247 245 243 224 218 226 227 241 267 258 240 244 260 272 281 285 279 280 282 267 237 213 192 206 193 186 188 187 203 217 211 204 185 190 191 183 173 179 193 199 187 186 190 181 170 171 183 187 198 209 218
234 215 216 205 207 222 218 213 232 238 249 252 263 280 286 286 289 294 280 280 284 324 223 195 184 186 187 181 186 190 196 224 201 211 220 188 205 187 183 178 164 173 173 179 177 169 167 163 168 180 183 197 208 203
227 185 202 220 242 241 232 232 245 253 256 259 268 275 276 286 296 284 282 281 267 252 169 178 215 220 208 201 209 194 192 210 209 212 219 218 160 178 173 179 175 165 161 163 169 175 186 190 193 201 198 202 211 218
209 190 199 232 249 249 247 250 219 225 223 224 235 245 246 244 313 284 290 246 234 212 224 219 172 167 156 162 164 184 192 209 235 254 222 215 214 185 175 167 160 169 180 189 197 198 196 197 200 200 203 205 223 202
207 205 211 235 220 213 164 146 129 182 272 158 211 212 224 194 240 271 121 146 152 141 155 172 173 151 157 166 162 156 145 133 114 94 172 202 183 171 172 192 182 180 188 193 203 209 206 207 215 217 215 220 228 236